Location: Antichan
(42.9728°N, 0.6667°E)
Time: 18:18:34
(UTC+00:00)

Meteor 1-5 Rocket - Pass Details

Date: 15 August 2020
Orbit: 788 x 916 km, 81.2° (Epoch: 18 September)

Event Time Altitude Azimuth Distance (km) Brightness Sun altitude
Exits shadow 21:18:41 45° 151° (SSE) 1,230 4.6 -22.2°
Maximum altitude 21:20:20 61° 95° (E) 1,028 4.3 -22.4°
Drops below altitude 10° 21:26:09 10° 17° (NNE) 2,585 7.1 -23.1°
Sets 21:28:37 0° 14° (NNE) 3,516 7.9 -23.4°
